User: anonymous   Login
Location: Rumah Long Bangan
(2.8362°N, 113.7519°E)
Time: 01:53:18
(UTC+00:00)
Language:

Cosmos 1680 Rocket - Orbit

View from above orbital plane
View from above orbital plane
View from above satellite
View from above satellite

Ground track
Ground track

The orbit data is extracted from the following two-line orbital elements,

1 16012U 85079B   22021.80985969  .00000089  00000-0  39317-4 0  9994
2 16012  74.0605 294.3124 0014267 142.4494 217.7659 14.36409916904943
Epoch (UTC): 21 January 2022 19:26:11
Eccentricity: 0.0014267
inclination: 74.0605°
perigee height: 760 km
apogee height: 780 km
right ascension of ascending node: 294.3124°
argument of perigee: 142.4494°
revolutions per day: 14.36409916
mean anomaly at epoch: 217.7659°
orbit number at epoch: 90494

The dashed part of the orbit path shows where the satellite is in the earth's shadow,  

DLR